Location: Hokitika
(42.7170°S, 170.9670°E)
Time: 06:02:15
(UTC+12:00)

Mayak - Pass Details

Date: 24 January 2019
Orbit: 584 x 601 km, 97.6° (Epoch: 22 April)

Event Time Altitude Azimuth Distance (km) Brightness Sun altitude
Exits shadow 22:46:19 17° 88° (E) 1,519 0.4 -15.3°
Maximum altitude 22:47:42 20° 114° (ESE) 1,400 0.5 -15.4°
Drops below altitude 10° 22:50:47 10° 161° (SSE) 1,952 1.8 -15.8°
Sets 22:53:25 0° 177° (S) 2,867 3.0 -16.2°
